This is the latest recevied weather packets stored in our database for station/object DC1MAK-13. If no packets are shown the sender has not sent any weather packets the latest 1 day(s).
| Time | Temp. | Humidity | Pressure | Rain* | Wind** | Luminosity | Snow |
|---|---|---|---|---|---|---|---|
| 1777980579 | 19.44° C | 52% | 978.4 hPa | - | 0 m/s | - | - |
| 1777980272 | 19.44° C | 52% | 978.3 hPa | - | 0 m/s | - | - |
| 1777979969 | 19.44° C | 51% | 978.4 hPa | - | 0 m/s | - | - |
| 1777979665 | 19.44° C | 51% | 978.4 hPa | - | 0 m/s | - | - |
| 1777979059 | 19.44° C | 50% | 978.3 hPa | - | 0 m/s | - | - |
| 1777978759 | 19.44° C | 49% | 978.2 hPa | - | 0 m/s | - | - |
| 1777978451 | 19.44° C | 50% | 978.3 hPa | - | 0 m/s | - | - |
| 1777978147 | 19.44° C | 50% | 978.3 hPa | - | 0 m/s | - | - |
| 1777977843 | 19.44° C | 50% | 978.3 hPa | - | 0 m/s | - | - |
| 1777977239 | 18.89° C | 52% | 978.3 hPa | - | 0 m/s | - | - |
| 1777976933 | 19.44° C | 54% | 978.4 hPa | - | 0 m/s | - | - |
| 1777976629 | 19.44° C | 55% | 978.5 hPa | - | 0 m/s | - | - |
| 1777976325 | 20° C | 54% | 978.5 hPa | - | 0 m/s | - | - |
| 1777975719 | 20° C | 53% | 978.5 hPa | - | 0 m/s | - | - |
| 1777975419 | 20° C | 52% | 978.5 hPa | - | 0 m/s | - | - |
| 1777975111 | 20° C | 53% | 978.6 hPa | - | 0 m/s | - | - |
| 1777974807 | 19.44° C | 54% | 978.6 hPa | - | 0 m/s | - | - |
| 1777974504 | 19.44° C | 55% | 978.6 hPa | - | 0 m/s | - | - |
| 1777973899 | 19.44° C | 57% | 978.6 hPa | - | 0 m/s | - | - |
| 1777973599 | 20° C | 55% | 978.6 hPa | - | 0 m/s | - | - |
| 1777973289 | 20° C | 55% | 978.6 hPa | - | 0 m/s | - | - |
| 1777972986 | 20° C | 55% | 978.7 hPa | - | 0 m/s | - | - |
| 1777972682 | 19.44° C | 56% | 978.8 hPa | - | 0 m/s | - | - |
| 1777972079 | 18.89° C | 59% | 978.8 hPa | - | 0 m/s | - | - |
| 1777971771 | 18.33° C | 58% | 978.8 hPa | - | 0 m/s | - | - |
* Rain since midnight (hover to see other rain measurements)
** Current wind speed in m/s (hover to see current wind gust speed)